User: anonymous   Login
Location: Cahas Mountain Overlook
(37.0833°N, 80.1000°W)
Time: 16:13:38
(UTC-05:00)
Language:

Transit 4A - Orbit

View from above orbital plane
View from above orbital plane
View from above satellite
View from above satellite

Ground track
Ground track

The orbit data is extracted from the following two-line orbital elements,

1   116U 61015A   22025.21068455 -.00000039  00000-0  29149-4 0  9995
2   116  66.8076 213.7856 0080434 314.3444  45.1061 13.91809076 73952
Epoch (UTC): 25 January 2022 05:03:23
Eccentricity: 0.0080434
inclination: 66.8076°
perigee height: 863 km
apogee height: 981 km
right ascension of ascending node: 213.7856°
argument of perigee: 314.3444°
revolutions per day: 13.91809076
mean anomaly at epoch: 45.1061°
orbit number at epoch: 7395

The dashed part of the orbit path shows where the satellite is in the earth's shadow,  

DLR